• In Denmark
  • List of Countries
  • For 7 days
  • Water Temperature
  • Satellite Maps
  • Weather Map
  • Weather Widgets
  • user-avatar
    Login

    Hourly Weather Hobart

    Today, 28 July, Friday

    Time Temperature Precipitation Wind Pressure Humidity
    00:00 +7°C° 0.1 mm 5 mps 741 mmHg 87%
    01:00 +7°C° 0.1 mm 5 mps 740 mmHg 89%
    02:00 +7°C° 0.1 mm 4 mps 741 mmHg 90%
    03:00 +7°C° 0.1 mm 4 mps 741 mmHg 90%
    04:00 +7°C° 0 mm 3 mps 740 mmHg 93%
    05:00 +7°C° 0 mm 3 mps 741 mmHg 94%
    06:00 +5°C° 0 mm 3 mps 741 mmHg 94%
    07:00 +5°C° 0 mm 3 mps 742 mmHg 94%
    08:00 +6°C° 0 mm 4 mps 742 mmHg 90%
    09:00 +7°C° 0 mm 4 mps 743 mmHg 86%
    10:00 +8°C° 0 mm 5 mps 744 mmHg 82%
    11:00 +9°C° 0.1 mm 5 mps 744 mmHg 77%
    12:00 +9°C° 0.1 mm 5 mps 744 mmHg 72%
    13:00 +10°C° 0.1 mm 5 mps 745 mmHg 68%
    14:00 +9°C° 0 mm 5 mps 745 mmHg 67%
    15:00 +10°C° 0 mm 4 mps 746 mmHg 67%
    16:00 +10°C° 0 mm 4 mps 746 mmHg 67%
    17:00 +8°C° 0 mm 3 mps 747 mmHg 74%
    18:00 +7°C° 0 mm 3 mps 747 mmHg 81%
    19:00 +5°C° 0 mm 2 mps 748 mmHg 89%
    20:00 +4°C° 0 mm 2 mps 748 mmHg 90%
    21:00 +4°C° 0 mm 2 mps 748 mmHg 92%
    22:00 +3°C° 0 mm 2 mps 748 mmHg 93%
    23:00 +3°C° 0 mm 2 mps 747 mmHg 90%

    Tomorrow, 29 July, Saturday

    Time Temperature Precipitation Wind Pressure Humidity
    00:00 +3°C° 0 mm 2 mps 747 mmHg 87%
    01:00 +2°C° 0 mm 3 mps 746 mmHg 84%
    02:00 +2°C° 0 mm 3 mps 746 mmHg 79%
    03:00 +3°C° 0 mm 4 mps 745 mmHg 74%
    04:00 +2°C° 0 mm 5 mps 744 mmHg 69%
    05:00 +3°C° 0 mm 5 mps 744 mmHg 66%
    06:00 +5°C° 0 mm 5 mps 743 mmHg 64%
    07:00 +6°C° 0 mm 5 mps 742 mmHg 62%
    08:00 +8°C° 0 mm 6 mps 742 mmHg 60%
    09:00 +10°C° 0 mm 6 mps 741 mmHg 58%
    10:00 +14°C° 0 mm 7 mps 740 mmHg 56%
    11:00 +15°C° 0 mm 7 mps 739 mmHg 52%
    12:00 +16°C° 0 mm 8 mps 738 mmHg 48%
    13:00 +18°C° 0 mm 8 mps 737 mmHg 44%
    14:00 +17°C° 0 mm 8 mps 736 mmHg 46%
    15:00 +16°C° 0 mm 7 mps 736 mmHg 49%
    16:00 +15°C° 0 mm 7 mps 736 mmHg 51%
    17:00 +14°C° 0 mm 6 mps 736 mmHg 57%
    18:00 +13°C° 0 mm 5 mps 735 mmHg 62%
    19:00 +12°C° 0 mm 4 mps 735 mmHg 68%
    20:00 +11°C° 0.2 mm 4 mps 735 mmHg 74%
    21:00 +11°C° 0.2 mm 4 mps 735 mmHg 80%
    22:00 +10°C° 0.2 mm 4 mps 735 mmHg 86%
    23:00 +8°C° 0.1 mm 4 mps 735 mmHg 88%

    Day after tomorrow, 30 July, Sunday

    Time Temperature Precipitation Wind Pressure Humidity
    00:00 +9°C° 0.1 mm 3 mps 735 mmHg 90%
    01:00 +8°C° 0.1 mm 3 mps 735 mmHg 93%
    02:00 +8°C° 0 mm 3 mps 735 mmHg 92%
    03:00 +7°C° 0 mm 4 mps 736 mmHg 90%
    04:00 +7°C° 0 mm 4 mps 736 mmHg 89%
    05:00 +7°C° 0 mm 4 mps 736 mmHg 87%
    06:00 +7°C° 0 mm 5 mps 736 mmHg 86%
    07:00 +7°C° 0 mm 5 mps 737 mmHg 84%
    08:00 +7°C° 0 mm 6 mps 737 mmHg 78%
    09:00 +8°C° 0 mm 6 mps 737 mmHg 72%
    10:00 +9°C° 0 mm 7 mps 738 mmHg 67%
    11:00 +9°C° 0.1 mm 7 mps 738 mmHg 65%
    12:00 +10°C° 0.1 mm 7 mps 738 mmHg 64%
    13:00 +10°C° 0.1 mm 7 mps 738 mmHg 63%
    14:00 +9°C° 0.2 mm 7 mps 739 mmHg 66%
    15:00 +8°C° 0.2 mm 7 mps 740 mmHg 70%
    16:00 +6°C° 0.2 mm 7 mps 740 mmHg 73%
    17:00 +5°C° 0 mm 6 mps 741 mmHg 77%
    18:00 +5°C° 0 mm 5 mps 742 mmHg 80%
    19:00 +3°C° 0 mm 5 mps 743 mmHg 84%
    20:00 +4°C° 0 mm 4 mps 744 mmHg 86%
    21:00 +3°C° 0 mm 4 mps 745 mmHg 88%
    22:00 +3°C° 0 mm 3 mps 746 mmHg 90%
    23:00 +3°C° 0 mm 3 mps 746 mmHg 91%

    31 July, Monday

    Time Temperature Precipitation Wind Pressure Humidity
    00:00 +2°C° 0 mm 3 mps 747 mmHg 93%
    01:00 +2°C° 0 mm 3 mps 747 mmHg 94%
    02:00 +2°C° 0 mm 3 mps 747 mmHg 94%
    03:00 +2°C° 0 mm 3 mps 748 mmHg 95%
    04:00 +2°C° 0 mm 3 mps 748 mmHg 95%
    05:00 +3°C° 0 mm 2 mps 749 mmHg 95%
    06:00 +2°C° 0 mm 2 mps 749 mmHg 95%
    07:00 +2°C° 0 mm 2 mps 750 mmHg 95%
    08:00 +4°C° 0 mm 2 mps 750 mmHg 87%
    09:00 +6°C° 0 mm 2 mps 750 mmHg 78%
    10:00 +8°C° 0 mm 2 mps 751 mmHg 70%
    11:00 +11°C° 0 mm 1 mps 751 mmHg 62%
    12:00 +12°C° 0 mm 1 mps 750 mmHg 54%
    13:00 +12°C° 0 mm 0 mps 750 mmHg 46%
    14:00 +13°C° 0 mm 1 mps 750 mmHg 48%
    15:00 +12°C° 0 mm 1 mps 750 mmHg 50%
    16:00 +12°C° 0 mm 1 mps 750 mmHg 51%
    17:00 +10°C° 0 mm 1 mps 751 mmHg 61%
    18:00 +7°C° 0 mm 1 mps 751 mmHg 71%
    19:00 +5°C° 0 mm 1 mps 752 mmHg 81%
    20:00 +5°C° 0 mm 1 mps 752 mmHg 84%
    21:00 +4°C° 0 mm 1 mps 752 mmHg 87%
    22:00 +3°C° 0 mm 0 mps 753 mmHg 91%
    23:00 +4°C° 0 mm 1 mps 753 mmHg 91%

    1 August, Tuesday

    Time Temperature Precipitation Wind Pressure Humidity
    00:00 +3°C° 0 mm 1 mps 753 mmHg 92%
    01:00 +3°C° 0 mm 1 mps 753 mmHg 93%
    02:00 +3°C° 0 mm 1 mps 753 mmHg 93%
    03:00 +3°C° 0 mm 1 mps 753 mmHg 93%
    04:00 +3°C° 0 mm 1 mps 753 mmHg 93%
    05:00 +3°C° 0 mm 1 mps 754 mmHg 92%
    06:00 +3°C° 0 mm 1 mps 754 mmHg 92%
    07:00 +2°C° 0 mm 1 mps 754 mmHg 92%
    08:00 +5°C° 0 mm 1 mps 755 mmHg 81%
    09:00 +7°C° 0 mm 1 mps 755 mmHg 70%
    10:00 +10°C° 0 mm 1 mps 755 mmHg 58%
    11:00 +11°C° 0 mm 1 mps 755 mmHg 53%
    12:00 +12°C° 0 mm 2 mps 755 mmHg 48%
    13:00 +13°C° 0 mm 2 mps 754 mmHg 42%
    14:00 +13°C° 0 mm 2 mps 755 mmHg 47%
    15:00 +12°C° 0 mm 2 mps 755 mmHg 51%
    16:00 +12°C° 0 mm 2 mps 755 mmHg 55%
    17:00 +8°C° 0 mm 2 mps 755 mmHg 68%
    18:00 +6°C° 0 mm 2 mps 756 mmHg 80%
    19:00 +5°C° 0 mm 1 mps 757 mmHg 92%
    20:00 +5°C° 0 mm 1 mps 757 mmHg 93%
    21:00 +4°C° 0 mm 1 mps 757 mmHg 95%
    22:00 +4°C° 0 mm 1 mps 757 mmHg 96%
    23:00 +4°C° 0 mm 1 mps 757 mmHg 96%

    2 August, Wednesday

    Time Temperature Precipitation Wind Pressure Humidity
    00:00 +4°C° 0 mm 1 mps 757 mmHg 97%
    01:00 +3°C° 0 mm 1 mps 757 mmHg 97%
    02:00 +3°C° 0 mm 1 mps 757 mmHg 97%
    03:00 +3°C° 0 mm 1 mps 757 mmHg 97%
    04:00 +3°C° 0 mm 1 mps 756 mmHg 97%
    05:00 +3°C° 0 mm 1 mps 757 mmHg 96%
    06:00 +2°C° 0 mm 1 mps 757 mmHg 96%
    07:00 +2°C° 0 mm 1 mps 757 mmHg 96%
    08:00 +5°C° 0 mm 1 mps 757 mmHg 87%
    09:00 +7°C° 0 mm 1 mps 757 mmHg 78%
    10:00 +9°C° 0 mm 1 mps 758 mmHg 68%
    11:00 +10°C° 0 mm 1 mps 757 mmHg 63%
    12:00 +12°C° 0 mm 1 mps 757 mmHg 57%
    13:00 +13°C° 0 mm 1 mps 756 mmHg 51%
    14:00 +12°C° 0 mm 1 mps 756 mmHg 53%
    15:00 +12°C° 0 mm 1 mps 756 mmHg 56%
    16:00 +11°C° 0 mm 1 mps 756 mmHg 59%
    17:00 +9°C° 0 mm 1 mps 756 mmHg 70%
    18:00 +7°C° 0 mm 1 mps 756 mmHg 81%
    19:00 +4°C° 0 mm 1 mps 756 mmHg 91%
    20:00 +4°C° 0 mm 1 mps 756 mmHg 93%
    21:00 +4°C° 0 mm 1 mps 756 mmHg 94%
    22:00 +3°C° 0 mm 1 mps 756 mmHg 95%
    23:00 +3°C° 0 mm 1 mps 756 mmHg 95%
    Show more